Weather History for KBIE - February, 2013

Change the Weather History Date:

Friday, February 15, 2013

  Actual Average Record
Temperature  
Mean Temperature 26 °F -  
Max Temperature 37 °F 41 °F 73 °F (1954)
Min Temperature 14 °F 20 °F -6 °F (1958)
Degree Days  
Heating Degree Days 40    
Moisture  
Dew Point 16 °F    
Average Humidity 69    
Maximum Humidity 86    
Minimum Humidity 35    
Precipitation  
Precipitation 0.00 in - - ()
Sea Level Pressure  
Sea Level Pressure 30.33 in    
Wind  
Wind Speed 10 mph (NW)    
Max Wind Speed 22 mph    
Max Gust Speed 32 mph    
Visibility 10 miles    
Events Snow    
Averages and records for this station are not official NWS values.
T = Trace of Precipitation, MM = Missing Value Source: NWS Daily Summary

Daily Weather History Graph

Daily Weather History Graph

Search for Another Location

Airport or City:

Trip Planner

Search our weather history database for the weather conditions in past years. The results will help you decide how hot, cold, wet, or windy it might be!

Date:

Astronomy

Feb. 15, 2013 Rise Set
Actual Time 7:19 AM CST 6:02 PM CST
Civil Twilight 6:52 AM CST 6:30 PM CST
Nautical Twilight 6:20 AM CST 7:02 PM CST
Astronomical Twilight 5:48 AM CST 7:34 PM CST
Moon 9:56 AM CST (2/15) No Moon Set
Length of Visible Light 11h 38m
Length of Day
10h 42m
Waxing Crescent, 30% of the Moon is Illuminated
Feb 15
Waxing Crescent
Feb 17
First Quarter
Feb 25
Full
Mar 4
Last Quarter
Mar 11
New

Hourly Weather History & Observations

Time (CST) Temp. Windchill Dew Point Humidity Pressure Visibility Wind Dir Wind Speed Gust Speed Precip Events Conditions
12:15 AM 23.5 °F 10.8 °F 15.3 °F 71% 30.30 in 10.0 mi NNW 15.0 mph 18.4 mph N/A   Clear
12:35 AM 23.0 °F 10.6 °F 14.9 °F 71% 30.31 in 10.0 mi NNW 13.8 mph - N/A   Clear
12:55 AM 22.5 °F 11.1 °F 14.0 °F 70% 30.31 in 10.0 mi NNW 11.5 mph - N/A   Clear
1:15 AM 21.6 °F 12.1 °F 14.0 °F 73% 30.32 in 10.0 mi NNW 8.1 mph - N/A   Clear
1:35 AM 21.2 °F 10.1 °F 13.5 °F 72% 30.32 in 10.0 mi NNW 10.4 mph - N/A   Clear
1:55 AM 20.5 °F 10.0 °F 12.7 °F 72% 30.32 in 10.0 mi NNW 9.2 mph - N/A   Clear
2:15 AM 20.3 °F 9.8 °F 12.7 °F 73% 30.33 in 10.0 mi NNW 9.2 mph - N/A   Clear
2:55 AM 19.4 °F 9.5 °F 14.0 °F 80% 30.34 in 10.0 mi NNW 8.1 mph - N/A   Clear
3:15 AM 19.9 °F 10.1 °F 14.5 °F 80% 30.34 in 10.0 mi NNW 8.1 mph - N/A   Clear
3:35 AM 19.4 °F 8.6 °F 14.2 °F 80% 30.34 in 10.0 mi NW 9.2 mph - N/A   Clear
3:55 AM 19.4 °F 7.9 °F 14.0 °F 80% 30.33 in 10.0 mi NNW 10.4 mph - N/A   Clear
4:15 AM 18.5 °F 8.4 °F 13.8 °F 82% 30.33 in 10.0 mi NW 8.1 mph - N/A   Clear
4:35 AM 18.5 °F 8.4 °F 14.0 °F 83% 30.34 in 10.0 mi NW 8.1 mph - N/A   Clear
4:55 AM 18.9 °F 8.0 °F 14.0 °F 81% 30.34 in 10.0 mi NW 9.2 mph - N/A   Clear
5:15 AM 18.0 °F 8.7 °F 13.1 °F 81% 30.35 in 10.0 mi NW 6.9 mph - N/A   Clear
5:35 AM 17.4 °F 8.0 °F 12.7 °F 82% 30.35 in 10.0 mi WNW 6.9 mph - N/A   Clear
5:55 AM 17.4 °F 7.1 °F 12.6 °F 81% 30.35 in 10.0 mi WNW 8.1 mph - N/A   Clear
6:15 AM 16.5 °F 6.9 °F 11.3 °F 80% 30.35 in 10.0 mi WNW 6.9 mph - N/A   Clear
6:35 AM 16.3 °F 9.2 °F 11.7 °F 82% 30.36 in 10.0 mi WNW 4.6 mph - N/A   Clear
6:55 AM 14.2 °F - 10.0 °F 84% 30.37 in 10.0 mi Calm Calm - N/A   Clear
7:15 AM 16.9 °F - 11.8 °F 81% 30.37 in 10.0 mi Calm Calm - N/A   Clear
7:35 AM 16.5 °F 11.0 °F 11.3 °F 80% 30.37 in 10.0 mi West 3.5 mph - N/A   Clear
7:55 AM 17.8 °F 12.5 °F 13.1 °F 82% 30.37 in 10.0 mi West 3.5 mph - N/A   Clear
8:15 AM 19.2 °F - 14.5 °F 82% 30.38 in 10.0 mi Calm Calm - N/A   Scattered Clouds
8:35 AM 21.4 °F - 15.8 °F 79% 30.38 in 10.0 mi Calm Calm - N/A   Scattered Clouds
8:55 AM 23.4 °F 16.2 °F 16.7 °F 76% 30.38 in 10.0 mi West 5.8 mph - N/A   Clear
9:15 AM 25.3 °F 18.5 °F 18.0 °F 74% 30.38 in 10.0 mi WNW 5.8 mph - N/A   Clear
9:35 AM 27.1 °F 18.9 °F 18.9 °F 71% 30.38 in 10.0 mi West 8.1 mph - N/A   Clear
9:55 AM 28.8 °F 20.2 °F 18.3 °F 65% 30.38 in 10.0 mi West 9.2 mph - N/A   Clear
10:15 AM 30.2 °F 21.3 °F 16.7 °F 57% 30.38 in 10.0 mi NW 10.4 mph - N/A   Scattered Clouds
10:35 AM 31.1 °F 23.1 °F 16.0 °F 54% 30.37 in 10.0 mi NW 9.2 mph - N/A   Mostly Cloudy
10:55 AM 31.5 °F 24.2 °F 15.4 °F 52% 30.36 in 10.0 mi North 8.1 mph - N/A   Mostly Cloudy
11:15 AM 32.0 °F 28.7 °F 14.4 °F 48% 30.35 in 10.0 mi NNW 3.5 mph - N/A   Overcast
11:55 AM 34.2 °F 26.2 °F 14.0 °F 44% 30.34 in 10.0 mi NW 10.4 mph - N/A   Overcast
12:15 PM 34.0 °F 25.5 °F 13.3 °F 43% 30.34 in 10.0 mi WNW 11.5 mph - N/A   Overcast
12:35 PM 35.6 °F 27.5 °F 13.6 °F 41% 30.33 in 10.0 mi NW 11.5 mph 16.1 mph N/A   Overcast
12:55 PM 32.4 °F 23.5 °F 19.9 °F 60% 30.33 in 5.0 mi WNW 11.5 mph 20.7 mph N/A Snow Light Snow
1:15 PM 35.8 °F 30.1 °F 17.1 °F 47% 30.31 in 10.0 mi West 6.9 mph - N/A   Mostly Cloudy
1:35 PM 35.1 °F 27.9 °F 16.0 °F 46% 30.30 in 10.0 mi West 9.2 mph - N/A   Overcast
1:55 PM 35.1 °F 30.1 °F 16.9 °F 48% 30.30 in 10.0 mi WNW 5.8 mph - N/A   Overcast
2:15 PM 36.1 °F 28.7 °F 14.4 °F 41% 30.28 in 10.0 mi NW 10.4 mph - N/A   Overcast
2:35 PM 36.1 °F 29.9 °F 14.0 °F 40% 30.27 in 10.0 mi West 8.1 mph - N/A   Overcast
2:55 PM 37.0 °F 30.4 °F 11.5 °F 35% 30.26 in 10.0 mi WNW 9.2 mph - N/A   Overcast
3:15 PM 37.2 °F 30.0 °F 11.7 °F 35% 30.26 in 10.0 mi WNW 10.4 mph - N/A   Overcast
3:35 PM 37.0 °F 29.8 °F 11.7 °F 35% 30.26 in 10.0 mi WNW 10.4 mph - N/A   Overcast
3:55 PM 36.7 °F 28.9 °F 12.4 °F 37% 30.26 in 10.0 mi NW 11.5 mph - N/A   Overcast
4:15 PM 34.9 °F 26.6 °F 18.3 °F 51% 30.27 in 7.0 mi NNW 11.5 mph 19.6 mph N/A   Overcast
4:35 PM 34.2 °F 24.4 °F 22.5 °F 62% 30.27 in 10.0 mi NW 15.0 mph - N/A   Overcast
4:55 PM 33.3 °F 22.5 °F 23.7 °F 68% 30.27 in 10.0 mi North 17.3 mph - N/A   Overcast
5:15 PM 32.0 °F 21.6 °F 25.5 °F 77% 30.28 in 3.0 mi NNW 15.0 mph - N/A Snow Light Snow
5:35 PM 29.3 °F 17.3 °F 25.7 °F 86% 30.28 in 0.5 mi North 17.3 mph 25.3 mph N/A Snow Light Snow
5:55 PM 28.2 °F 18.9 °F 23.4 °F 82% 30.29 in 10.0 mi North 10.4 mph - N/A   Mostly Cloudy
6:15 PM 26.6 °F 16.8 °F 21.6 °F 81% 30.30 in 10.0 mi NW 10.4 mph - N/A   Clear
6:35 PM 28.6 °F 16.0 °F 22.8 °F 79% 30.30 in 10.0 mi NW 18.4 mph 27.6 mph N/A   Mostly Cloudy
6:55 PM 28.4 °F 14.7 °F 23.7 °F 83% 30.31 in 1.5 mi NNW 21.9 mph 32.2 mph N/A Snow Light Snow
7:15 PM 27.5 °F 15.0 °F 20.3 °F 74% 30.31 in 10.0 mi NNW 17.3 mph 25.3 mph N/A   Scattered Clouds
7:35 PM 26.4 °F 14.0 °F 18.7 °F 73% 30.31 in 10.0 mi NNW 16.1 mph - N/A   Clear
7:55 PM 25.5 °F 13.8 °F 17.1 °F 70% 30.32 in 10.0 mi NNW 13.8 mph - N/A   Clear
8:15 PM 24.8 °F 12.9 °F 16.7 °F 71% 30.32 in 10.0 mi NNW 13.8 mph - N/A   Clear
8:35 PM 24.1 °F 13.1 °F 16.3 °F 72% 30.32 in 10.0 mi NNW 11.5 mph - N/A   Clear
8:55 PM 23.0 °F 11.7 °F 15.8 °F 74% 30.33 in 10.0 mi NNW 11.5 mph - N/A   Clear
9:15 PM 22.5 °F 11.7 °F 15.6 °F 75% 30.33 in 10.0 mi NNW 10.4 mph - N/A   Clear
9:35 PM 21.7 °F 10.8 °F 14.9 °F 75% 30.34 in 10.0 mi NNW 10.4 mph - N/A   Clear
9:55 PM 21.4 °F 9.7 °F 14.9 °F 76% 30.34 in 10.0 mi NNW 11.5 mph - N/A   Clear
10:15 PM 20.5 °F 9.2 °F 14.5 °F 78% 30.35 in 10.0 mi NNW 10.4 mph - N/A   Clear
10:35 PM 21.2 °F 11.7 °F 14.7 °F 76% 30.35 in 10.0 mi NNW 8.1 mph - N/A   Mostly Cloudy
10:55 PM 21.0 °F 10.6 °F 14.4 °F 75% 30.34 in 10.0 mi NNW 9.2 mph - N/A   Mostly Cloudy
11:15 PM 21.2 °F 10.9 °F 14.9 °F 77% 30.34 in 10.0 mi NNW 9.2 mph - N/A   Overcast
11:35 PM 22.1 °F 12.8 °F 15.4 °F 76% 30.33 in 10.0 mi NNW 8.1 mph - N/A   Overcast
11:55 PM 21.6 °F 12.1 °F 15.3 °F 77% 30.33 in 10.0 mi NW 8.1 mph - N/A   Overcast